Location: The Saddle
(36.8333°N, 80.3417°W)
Time: 15:54:07
(UTC-05:00)

Transit 2A - All Passes

Search period start: 30 January 2023 00:00
Search period end: 09 February 2023 00:00
Orbit: 594 x 962 km, 66.7° (Epoch: 30 January)

Date Brightness Start Highest point End Pass type
(mag) Time Alt. Az. Time Alt. Az. Time Alt. Az.
30 Jan - 02:18:52 10° N 02:23:45 24° NE 02:28:47 10° ESE night (unlit)
30 Jan - 04:01:15 10° NW 04:07:21 61° WSW 04:13:36 10° SSE visible
30 Jan - 16:57:39 10° SSE 17:01:01 20° ESE 17:04:36 10° ENE daylight
30 Jan - 18:39:21 10° SW 18:43:45 39° NW 18:48:37 10° NNE visible
31 Jan - 01:44:55 10° N 01:48:58 18° NE 01:53:06 10° E night (unlit)
31 Jan - 03:26:41 10° NNW 03:32:53 86° WSW 03:39:16 10° SSE night (unlit)
31 Jan - 05:12:59 10° W 05:15:18 12° WSW 05:17:38 10° WSW night (unlit)
31 Jan - 16:24:52 10° SE 16:26:48 12° ESE 16:28:47 10° ENE daylight
31 Jan - 18:04:32 10° SW 18:09:09 61° WNW 18:14:17 10° NNE visible
01 Feb - 01:11:21 10° NNE 01:14:06 13° NE 01:16:54 10° ENE night (unlit)
01 Feb - 02:52:12 10° NNW 02:58:22 68° ENE 03:04:42 10° SE night (unlit)
01 Feb - 04:36:53 10° WNW 04:41:04 19° WSW 04:45:17 10° SSW night (unlit)
01 Feb - 17:30:00 10° SSW 17:34:37 86° ESE 17:39:49 10° NNE daylight
01 Feb - 19:16:22 10° WNW 19:18:40 13° NW 19:21:04 10° NNW visible
02 Feb - 02:17:50 10° NNW 02:23:47 48° ENE 02:29:55 10° SE night (unlit)
02 Feb - 04:01:36 10° NW 04:06:46 28° WSW 04:12:00 10° SSW night (unlit)
02 Feb - 16:55:41 10° S 17:00:12 54° ESE 17:05:12 10° NE daylight
02 Feb - 18:40:25 10° W 18:43:49 18° NW 18:47:26 10° N visible
03 Feb - 01:43:34 10° N 01:49:08 35° NE 01:54:52 10° ESE night (unlit)
03 Feb - 03:26:39 10° NW 03:32:24 40° WSW 03:38:15 10° S night (unlit)
03 Feb - 16:21:40 10° S 16:25:50 34° ESE 16:30:25 10° NE daylight
03 Feb - 18:05:01 10° WSW 18:09:03 26° NW 18:13:26 10° N visible
04 Feb - 01:09:24 10° N 01:14:26 25° NE 01:19:33 10° ESE night (unlit)
04 Feb - 02:51:54 10° NW 02:57:59 58° WSW 03:04:13 10° S night (unlit)
04 Feb - 15:48:01 10° SSE 15:51:33 22° ESE 15:55:20 10° ENE daylight
04 Feb - 17:29:54 10° SW 17:34:20 38° NW 17:39:15 10° NNE daylight
05 Feb - 00:35:26 10° N 00:39:38 19° NE 00:43:56 10° E night (unlit)
05 Feb - 02:17:16 10° NNW 02:23:32 83° WSW 02:29:54 10° SSE night (unlit)
05 Feb - 04:03:56 10° W 04:05:54 11° W 04:07:51 10° WSW night (unlit)
05 Feb - 15:15:03 10° SE 15:17:19 13° ESE 15:19:41 10° ENE daylight
05 Feb - 16:55:04 10° SW 16:59:43 58° WNW 17:04:54 10° NNE daylight
06 Feb - 00:01:46 10° NNE 00:04:46 14° NE 00:07:49 10° ENE night (unlit)
06 Feb - 01:42:47 10° NNW 01:49:00 71° ENE 01:55:21 10° SE night (unlit)
06 Feb - 03:27:36 10° WNW 03:31:39 18° WSW 03:35:43 10° SW night (unlit)
06 Feb - 16:20:29 10° SSW 16:25:10 90° WSW 16:30:27 10° NNE daylight
06 Feb - 18:07:01 10° WNW 18:09:16 13° NW 18:11:37 10° NNW daylight
07 Feb - 01:08:24 10° NNW 01:14:25 50° ENE 01:20:34 10° SE night (unlit)
07 Feb - 02:52:16 10° NW 02:57:21 27° WSW 03:02:30 10° SSW night (unlit)
07 Feb - 15:46:09 10° S 15:50:43 58° ESE 15:55:50 10° NE daylight
07 Feb - 17:31:01 10° W 17:34:23 18° NW 17:38:01 10° N daylight
08 Feb - 00:34:05 10° N 00:39:46 36° NE 00:45:33 10° ESE night (unlit)
08 Feb - 02:17:16 10° NW 02:23:00 38° WSW 02:28:47 10° S night (unlit)
08 Feb - 15:12:04 10° S 15:16:21 36° ESE 15:21:03 10° NE daylight
08 Feb - 16:55:34 10° WSW 16:59:36 25° NW 17:04:01 10° N daylight
